Torna al catalogo

COSMOS 2504

AttivoNavigazionePO
NORAD 40555·PAYLOAD·🇷🇺 Russia

Lanciato Mar 31, 2015 da Plesetsk Cosmodrome

Loading…

Prossimi Passaggi (prossime 24 ore)

TLE

AggiornatoSource: Space-Track

Epoca: Sep 14, 2026, 13:23 UTC

1 40555U 15020D   26257.55816300  .00000411  00000-0  14460-3 0  9991
2 40555  82.5201 162.2414 0608867  31.4467 332.1616 13.61422267562356

Traccia COSMOS 2504 in tempo reale con AllMySat

Download on the App Store